| time (UTC) | temp F | wind direction | speed knots | gust knots | rain 1hr in | rain 24hr in | rain mn in | humidity % | barometer mb |
| 20260505194730 | 60 | 139 | 2.6 | 3.5 | 0.00 | 0.00 | 0.00 | 79 | 1007.5 |
| 20260505194227 | 60 | 72 | 0.0 | 1.7 | 0.00 | 0.00 | 0.00 | 82 | 1007.7 |
| 20260505193722 | 60 | 131 | 1.7 | 3.5 | 0.00 | 0.00 | 0.00 | 81 | 1007.5 |
| 20260505193220 | 59 | 320 | 0.9 | 4.3 | 0.00 | 0.00 | 0.00 | 83 | 1007.4 |
| 20260505192719 | 59 | 0 | 0.9 | 4.3 | 0.00 | 0.00 | 0.00 | 81 | 1007.4 |
| 20260505192216 | 59 | 314 | 1.7 | 3.5 | 0.00 | 0.00 | 0.00 | 82 | 1007.7 |
| 20260505191714 | 58 | 104 | 0.0 | 1.7 | 0.00 | 0.00 | 0.00 | 85 | 1007.6 |
| 20260505191212 | 58 | 101 | 2.6 | 5.2 | 0.00 | 0.00 | 0.00 | 85 | 1007.6 |
| 20260505190708 | 58 | 69 | 2.6 | 5.2 | 0.00 | 0.00 | 0.00 | 85 | 1007.6 |
| 20260505190207 | 58 | 50 | 5.2 | 6.1 | 0.00 | 0.00 | 0.00 | 83 | 1009.2 |
| 20260505185704 | 58 | 2 | 1.7 | 3.5 | 0.00 | 0.00 | 0.00 | 82 | 1007.3 |
| 20260505185201 | 59 | 51 | 0.9 | 2.6 | 0.00 | 0.00 | 0.00 | 83 | 1007.4 |
| 20260505184657 | 59 | 114 | 2.6 | 3.5 | 0.00 | 0.00 | 0.00 | 82 | 1007.5 |
| 20260505184154 | 59 | 313 | 1.7 | 2.6 | 0.00 | 0.00 | 0.00 | 85 | 1007.4 |
| 20260505183651 | 57 | 173 | 0.9 | 2.6 | 0.00 | 0.00 | 0.00 | 84 | 1007.6 |
| 20260505183149 | 58 | 192 | 1.7 | 2.6 | 0.00 | 0.00 | 0.00 | 84 | 1007.5 |
| 20260505182645 | 58 | 233 | 0.9 | 1.7 | 0.00 | 0.00 | 0.00 | 84 | 1007.5 |
| 20260505182142 | 58 | 254 | 0.9 | 1.7 | 0.00 | 0.00 | 0.00 | 84 | 1007.5 |
| 20260505181638 | 58 | 143 | 0.0 | 1.7 | 0.00 | 0.00 | 0.00 | 84 | 1007.5 |
| 20260505181136 | 58 | 2 | 0.0 | 3.5 | 0.00 | 0.00 | 0.00 | 84 | 1007.5 |
| 20260505180632 | 57 | 66 | 0.0 | 2.6 | 0.00 | 0.00 | 0.00 | 85 | 1007.5 |
| 20260505180130 | 57 | 34 | 0.0 | 2.6 | 0.00 | 0.00 | 0.00 | 85 | 1007.5 |
| 20260505175625 | 57 | 286 | 2.6 | 3.5 | 0.00 | 0.00 | 0.00 | 85 | 1007.4 |
| 20260505175121 | 57 | 75 | 0.0 | 1.7 | 0.00 | 0.00 | 0.00 | 85 | 1007.4 |
| 20260505174613 | 56 | 180 | 0.0 | 0.9 | 0.00 | 0.00 | 0.00 | 86 | 1007.3 |
| 20260505174109 | 56 | 107 | 3.5 | 3.5 | 0.00 | 0.00 | 0.00 | 85 | 1007.3 |
| 20260505173605 | 57 | 53 | 0.9 | 1.7 | 0.00 | 0.00 | 0.00 | 87 | 1007.3 |
| 20260505173102 | 56 | 205 | 0.0 | 1.7 | 0.00 | 0.00 | 0.00 | 87 | 1006.9 |
| 20260505172600 | 55 | 77 | 2.6 | 5.2 | 0.00 | 0.00 | 0.00 | 89 | 1007.1 |
| 20260505172057 | 56 | 91 | 2.6 | 4.3 | 0.00 | 0.00 | 0.00 | 88 | 1007.3 |
| 20260505171551 | 56 | 76 | 1.7 | 3.5 | 0.00 | 0.00 | 0.00 | 87 | 1007.1 |
| 20260505171049 | 56 | 8 | 0.9 | 4.3 | 0.00 | 0.00 | 0.00 | 88 | 1007.2 |
| 20260505170545 | 57 | 76 | 0.0 | 1.7 | 0.00 | 0.00 | 0.00 | 88 | 1007.2 |
| 20260505170041 | 56 | 40 | 1.7 | 3.5 | 0.00 | 0.00 | 0.00 | 87 | 1007.0 |
| 20260505165531 | 57 | 321 | 2.6 | 6.1 | 0.00 | 0.00 | 0.00 | 87 | 1007.1 |
| 20260505165027 | 56 | 279 | 0.0 | 4.3 | 0.00 | 0.00 | 0.00 | 87 | 1007.0 |
| 20260505164523 | 55 | 151 | 0.0 | 1.7 | 0.00 | 0.00 | 0.00 | 87 | 1007.0 |
| 20260505164021 | 55 | 55 | 2.6 | 2.6 | 0.00 | 0.00 | 0.00 | 87 | 1007.1 |
| 20260505163519 | 56 | 149 | 0.9 | 1.7 | 0.00 | 0.00 | 0.00 | 87 | 1007.2 |
| 20260505163015 | 56 | 293 | 1.7 | 2.6 | 0.00 | 0.00 | 0.00 | 87 | 1007.2 |
| 20260505162508 | 55 | 52 | 0.0 | 1.7 | 0.00 | 0.00 | 0.00 | 88 | 1007.0 |
| 20260505162005 | 55 | 89 | 0.9 | 3.5 | 0.00 | 0.00 | 0.00 | 88 | 1007.0 |
| 20260505161456 | 55 | 348 | 1.7 | 1.7 | 0.00 | 0.00 | 0.00 | 88 | 1007.2 |
| 20260505160954 | 55 | 312 | 0.9 | 1.7 | 0.00 | 0.00 | 0.00 | 88 | 1006.8 |
| 20260505160452 | 55 | 36 | 0.0 | 2.6 | 0.00 | 0.00 | 0.00 | 89 | 1006.9 |
| 20260505152928 | 54 | 76 | 0.0 | 1.7 | 0.00 | 0.00 | 0.00 | 91 | 1006.8 |
| 20260505152426 | 53 | 4 | 0.0 | 2.6 | 0.00 | 0.00 | 0.00 | 91 | 1006.8 |
| 20260505151925 | 54 | 295 | 1.7 | 2.6 | 0.00 | 0.00 | 0.00 | 90 | 1006.8 |
| 20260505151416 | 53 | 283 | 0.0 | 1.7 | 0.00 | 0.00 | 0.00 | 91 | 1007.0 |
| 20260505150914 | 53 | 346 | 0.0 | 1.7 | 0.00 | 0.00 | 0.00 | 91 | 1006.8 |
| 20260505150410 | 53 | 71 | 0.0 | 1.7 | 0.00 | 0.00 | 0.00 | 92 | 1006.8 |
| 20260505140334 | 52 | 50 | 0.9 | 1.7 | 0.00 | 0.00 | 0.00 | 97 | 1006.4 |
| 20260505130252 | 51 | 131 | 0.9 | 2.6 | 0.00 | 0.00 | 0.00 | 98 | 1006.1 |
| 20260505124743 | 51 | 148 | 0.0 | 1.7 | 0.00 | 0.00 | 0.00 | 98 | 1006.0 |
| 20260505124240 | 51 | 93 | 1.7 | 2.6 | 0.00 | 0.00 | 0.00 | 98 | 1005.8 |
| 20260505123735 | 51 | 94 | 0.9 | 1.7 | 0.00 | 0.00 | 0.00 | 98 | 1005.8 |
| 20260505123232 | 51 | 64 | 0.0 | 1.7 | 0.00 | 0.00 | 0.00 | 98 | 1005.8 |
| 20260505122728 | 51 | 78 | 0.9 | 1.7 | 0.00 | 0.00 | 0.00 | 98 | 1005.8 |
| 20260505122226 | 51 | 101 | 0.9 | 1.7 | 0.00 | 0.00 | 0.00 | 97 | 1005.9 |
| 20260505121722 | 51 | 57 | 0.0 | 0.9 | 0.00 | 0.00 | 0.00 | 97 | 1006.1 |
| 20260505121219 | 51 | 50 | 0.0 | 1.7 | 0.00 | 0.00 | 0.00 | 97 | 1005.9 |
| 20260505120715 | 51 | 78 | 0.9 | 1.7 | 0.00 | 0.00 | 0.00 | 97 | 1005.9 |
| 20260505120211 | 51 | 88 | 0.9 | 1.7 | 0.00 | 0.00 | 0.00 | 97 | 1006.0 |
| 20260505115705 | 51 | 325 | 0.0 | 1.7 | 0.00 | 0.00 | 0.00 | 97 | 1005.8 |
| 20260505115203 | 51 | 338 | 0.0 | 2.6 | 0.00 | 0.00 | 0.00 | 97 | 1005.7 |
| 20260505114700 | 51 | 76 | 0.0 | 1.7 | 0.00 | 0.00 | 0.00 | 96 | 1005.8 |
| 20260505114155 | 51 | 25 | 0.9 | 2.6 | 0.00 | 0.00 | 0.00 | 96 | 1005.8 |
| 20260505113652 | 51 | 80 | 0.9 | 1.7 | 0.00 | 0.00 | 0.00 | 96 | 1005.6 |
| 20260505113149 | 52 | 65 | 0.0 | 2.6 | 0.00 | 0.00 | 0.00 | 95 | 1005.6 |
| 20260505112645 | 52 | 214 | 0.0 | 1.7 | 0.00 | 0.00 | 0.00 | 95 | 1005.7 |
| 20260505112143 | 52 | 192 | 0.0 | 2.6 | 0.00 | 0.00 | 0.00 | 95 | 1005.7 |
| 20260505111642 | 52 | 44 | 0.0 | 0.9 | 0.00 | 0.00 | 0.00 | 95 | 1005.5 |
| 20260505111139 | 52 | 89 | 0.0 | 0.9 | 0.00 | 0.00 | 0.00 | 94 | 1005.6 |
| 20260505110635 | 52 | 285 | 0.0 | 2.6 | 0.00 | 0.00 | 0.00 | 94 | 1005.6 |
| 20260505110133 | 52 | 21 | 0.0 | 4.3 | 0.00 | 0.00 | 0.00 | 94 | 1005.3 |
| 20260505102108 | 52 | 48 | 0.0 | 4.3 | 0.00 | 0.00 | 0.00 | 94 | 1005.4 |
| 20260505101607 | 52 | 80 | 0.9 | 2.6 | 0.00 | 0.00 | 0.00 | 94 | 1005.3 |
| 20260505101103 | 52 | 129 | 0.0 | 3.5 | 0.00 | 0.00 | 0.00 | 94 | 1005.3 |
| 20260505100559 | 52 | 156 | 2.6 | 3.5 | 0.00 | 0.00 | 0.00 | 94 | 1005.1 |
| 20260505100056 | 52 | 60 | 0.0 | 1.7 | 0.00 | 0.00 | 0.00 | 94 | 1005.1 |
| 20260505095552 | 52 | 37 | 0.0 | 2.6 | 0.00 | 0.00 | 0.00 | 94 | 1005.3 |
| 20260505095049 | 52 | 89 | 0.0 | 1.7 | 0.00 | 0.00 | 0.00 | 94 | 1005.2 |
| 20260505094545 | 52 | 295 | 0.0 | 2.6 | 0.00 | 0.00 | 0.00 | 94 | 1005.1 |
| 20260505094042 | 52 | 34 | 0.0 | 2.6 | 0.00 | 0.00 | 0.00 | 94 | 1005.4 |
| 20260505093538 | 52 | 74 | 1.7 | 2.6 | 0.00 | 0.00 | 0.00 | 94 | 1005.0 |
| 20260505093036 | 52 | 55 | 0.0 | 2.6 | 0.00 | 0.00 | 0.00 | 94 | 1004.9 |
| 20260505092533 | 52 | 32 | 0.9 | 1.7 | 0.00 | 0.00 | 0.00 | 95 | 1005.2 |
| 20260505092031 | 52 | 259 | 0.9 | 2.6 | 0.00 | 0.00 | 0.00 | 95 | 1005.2 |
| 20260505091528 | 52 | 76 | 0.0 | 1.7 | 0.00 | 0.00 | 0.00 | 94 | 1005.0 |
| 20260505091027 | 52 | 273 | 1.7 | 2.6 | 0.00 | 0.00 | 0.00 | 95 | 1005.1 |
| 20260505090524 | 51 | 97 | 0.9 | 2.6 | 0.00 | 0.00 | 0.00 | 95 | 1005.0 |
| 20260505090021 | 51 | 103 | 0.0 | 2.6 | 0.00 | 0.00 | 0.00 | 95 | 1004.8 |
| 20260505085519 | 51 | 12 | 0.0 | 2.6 | 0.00 | 0.00 | 0.00 | 95 | 1005.0 |
| 20260505085017 | 51 | 307 | 1.7 | 3.5 | 0.00 | 0.00 | 0.00 | 95 | 1005.1 |
| 20260505084515 | 51 | 269 | 0.0 | 2.6 | 0.00 | 0.00 | 0.00 | 95 | 1004.9 |
| 20260505084013 | 51 | 95 | 0.0 | 2.6 | 0.00 | 0.00 | 0.00 | 95 | 1004.9 |
| 20260505083510 | 51 | 356 | 1.7 | 2.6 | 0.00 | 0.00 | 0.00 | 95 | 1005.0 |
| 20260505083006 | 51 | 43 | 0.0 | 3.5 | 0.00 | 0.00 | 0.00 | 95 | 1005.0 |
| 20260505082502 | 51 | 178 | 0.9 | 6.1 | 0.00 | 0.00 | 0.00 | 96 | 1004.9 |
| 20260505081959 | 51 | 150 | 1.7 | 2.6 | 0.00 | 0.00 | 0.00 | 96 | 1004.9 |
| 20260505081455 | 51 | 95 | 1.7 | 2.6 | 0.00 | 0.00 | 0.00 | 96 | 1004.9 |
| 20260505080952 | 51 | 119 | 1.7 | 4.3 | 0.00 | 0.00 | 0.00 | 96 | 1004.8 |
| 20260505080448 | 51 | 136 | 1.7 | 2.6 | 0.00 | 0.00 | 0.00 | 96 | 1004.8 |
| 20260505075944 | 51 | 119 | 2.6 | 2.6 | 0.00 | 0.00 | 0.00 | 96 | 1004.8 |
| 20260505075441 | 50 | 75 | 0.0 | 4.3 | 0.00 | 0.00 | 0.00 | 97 | 1004.7 |
| 20260505074938 | 50 | 69 | 0.0 | 1.7 | 0.00 | 0.00 | 0.00 | 96 | 1004.7 |
| 20260505074436 | 50 | 87 | 2.6 | 2.6 | 0.00 | 0.00 | 0.00 | 96 | 1004.7 |
| 20260505073933 | 50 | 142 | 0.0 | 1.7 | 0.00 | 0.00 | 0.00 | 96 | 1004.7 |
| 20260505073430 | 51 | 71 | 0.0 | 2.6 | 0.00 | 0.00 | 0.00 | 96 | 1004.5 |
| 20260505072927 | 51 | 89 | 0.0 | 1.7 | 0.00 | 0.00 | 0.00 | 96 | 1004.5 |
| 20260505072423 | 51 | 82 | 2.6 | 3.5 | 0.00 | 0.00 | 0.00 | 95 | 1004.5 |
| 20260505071919 | 51 | 170 | 1.7 | 2.6 | 0.00 | 0.00 | 0.00 | 95 | 1004.4 |
| 20260505071415 | 51 | 169 | 0.9 | 2.6 | 0.00 | 0.00 | 0.00 | 96 | 1004.4 |
| 20260505070914 | 51 | 104 | 0.0 | 0.9 | 0.00 | 0.00 | 0.00 | 95 | 1004.3 |
| 20260505070410 | 51 | 131 | 1.7 | 2.6 | 0.00 | 0.00 | 0.00 | 95 | 1004.3 |
| 20260505065906 | 51 | 240 | 0.0 | 2.6 | 0.00 | 0.00 | 0.00 | 95 | 1004.3 |
| 20260505065403 | 51 | 108 | 2.6 | 4.3 | 0.00 | 0.00 | 0.00 | 95 | 1004.1 |
| 20260505064859 | 51 | 81 | 0.9 | 2.6 | 0.00 | 0.00 | 0.00 | 95 | 1004.3 |
| 20260505064357 | 51 | 126 | 0.9 | 2.6 | 0.00 | 0.00 | 0.00 | 95 | 1004.3 |
| 20260505063855 | 51 | 55 | 0.9 | 3.5 | 0.00 | 0.00 | 0.00 | 94 | 1004.3 |
| 20260505063355 | 51 | 288 | 0.0 | 3.5 | 0.00 | 0.00 | 0.00 | 94 | 1004.4 |
| 20260505062853 | 51 | 139 | 0.0 | 2.6 | 0.00 | 0.00 | 0.00 | 94 | 1004.1 |
| 20260505062350 | 51 | 182 | 0.9 | 3.5 | 0.00 | 0.00 | 0.00 | 94 | 1004.1 |
| 20260505061846 | 51 | 172 | 1.7 | 3.5 | 0.00 | 0.00 | 0.00 | 94 | 1004.1 |
| 20260505061345 | 52 | 5 | 1.7 | 6.1 | 0.00 | 0.00 | 0.00 | 94 | 1004.1 |
| 20260505060842 | 52 | 117 | 1.7 | 2.6 | 0.00 | 0.00 | 0.00 | 94 | 1004.3 |
| 20260505060339 | 52 | 106 | 1.7 | 4.3 | 0.00 | 0.00 | 0.00 | 94 | |
| 20260505055835 | 51 | 297 | 0.0 | 4.3 | 0.00 | 0.00 | 0.00 | 94 | |
| 20260505055331 | 51 | 252 | 0.9 | 2.6 | 0.00 | 0.00 | 0.00 | 94 | |
| 20260505054828 | 52 | 53 | 2.6 | 2.6 | 0.00 | 0.00 | 0.00 | 94 | 1003.9 |
| 20260505054325 | 52 | 14 | 2.6 | 2.6 | 0.00 | 0.00 | 0.00 | 93 | 1003.9 |
| 20260505053824 | 52 | 171 | 3.5 | 4.3 | 0.00 | 0.00 | 0.00 | 94 | 1003.9 |
| 20260505053320 | 52 | 103 | 0.0 | 2.6 | 0.00 | 0.00 | 0.00 | 93 | 1003.9 |
| 20260505052817 | 52 | 89 | 0.0 | 1.7 | 0.00 | 0.00 | 0.00 | 93 | 1003.9 |
| 20260505052314 | 52 | 142 | 0.0 | 1.7 | 0.00 | 0.00 | 0.00 | 93 | 1003.9 |
| 20260505051811 | 52 | 13 | 0.0 | 2.6 | 0.00 | 0.00 | 0.00 | 93 | 1003.9 |
| 20260505051308 | 52 | 279 | 0.0 | 3.5 | 0.00 | 0.00 | 0.00 | 93 | 1003.9 |
| 20260505050806 | 52 | 89 | 0.0 | 1.7 | 0.00 | 0.00 | 0.00 | 92 | 1003.9 |
| 20260505050305 | 53 | 63 | 1.7 | 4.3 | 0.00 | 0.00 | 0.00 | 92 | 1003.9 |
| 20260505041734 | 54 | 88 | 2.6 | 2.6 | 0.00 | 0.00 | 0.00 | 91 | 1003.3 |
| 20260505041231 | 55 | 189 | 0.0 | 2.6 | 0.00 | 0.00 | 0.00 | 91 | 1003.3 |
| 20260505040729 | 55 | 154 | 0.0 | 0.9 | 0.00 | 0.00 | 0.00 | 90 | 1003.0 |
| 20260505040226 | 55 | 348 | 0.9 | 2.6 | 0.00 | 0.00 | 0.00 | 90 | 1003.0 |
| 20260505035723 | 55 | 127 | 0.0 | 1.7 | 0.00 | 0.00 | 0.00 | 89 | 1003.0 |
| 20260505035219 | 56 | 66 | 0.0 | 6.1 | 0.00 | 0.00 | 0.00 | 89 | 1003.0 |
| 20260505034716 | 56 | 34 | 0.0 | 3.5 | 0.00 | 0.00 | 0.00 | 89 | 1002.6 |
| 20260505034213 | 56 | 124 | 0.0 | 2.6 | 0.00 | 0.00 | 0.00 | 88 | 1002.6 |
| 20260505033709 | 57 | 251 | 0.0 | 2.6 | 0.00 | 0.00 | 0.00 | 88 | 1002.6 |
| 20260505033207 | 57 | 86 | 0.0 | 3.5 | 0.00 | 0.00 | 0.00 | 87 | 1002.5 |
| 20260505032705 | 57 | 284 | 0.0 | 2.6 | 0.00 | 0.00 | 0.00 | 87 | 1002.5 |
| 20260505032200 | 58 | 45 | 1.7 | 1.7 | 0.00 | 0.00 | 0.00 | 86 | 1002.6 |
| 20260505031658 | 59 | 285 | 1.7 | 2.6 | 0.00 | 0.00 | 0.00 | 85 | 1002.5 |
| 20260505031154 | 59 | 116 | 0.0 | 3.5 | 0.00 | 0.00 | 0.00 | 85 | 1002.4 |
| 20260505030651 | 59 | 135 | 2.6 | 7.8 | 0.00 | 0.00 | 0.00 | 84 | 1002.4 |
| 20260505030147 | 60 | 336 | 0.9 | 6.1 | 0.00 | 0.00 | 0.00 | 84 | 1002.4 |
| 20260505025643 | 60 | 345 | 0.0 | 1.7 | 0.00 | 0.00 | 0.00 | 83 | 1002.4 |
| 20260505025142 | 60 | 104 | 0.9 | 4.3 | 0.00 | 0.00 | 0.00 | 83 | 1002.1 |
| 20260505024639 | 61 | 280 | 0.9 | 3.5 | 0.00 | 0.00 | 0.00 | 82 | 1002.3 |
| 20260505024136 | 61 | 50 | 0.0 | 9.6 | 0.00 | 0.00 | 0.00 | 82 | 1001.9 |
| 20260505023634 | 62 | 284 | 2.6 | 5.2 | 0.00 | 0.00 | 0.00 | 81 | 1001.9 |
| 20260505023131 | 62 | 25 | 0.9 | 3.5 | 0.00 | 0.00 | 0.00 | 80 | 1002.1 |
| 20260505022628 | 63 | 49 | 0.9 | 6.1 | 0.00 | 0.00 | 0.00 | 79 | 1002.1 |
| 20260505022125 | 63 | 333 | 1.7 | 4.3 | 0.00 | 0.00 | 0.00 | 79 | 1002.1 |
| 20260505021622 | 63 | 32 | 0.9 | 3.5 | 0.00 | 0.00 | 0.00 | 79 | 1002.1 |
| 20260505021119 | 64 | 89 | 0.0 | 4.3 | 0.00 | 0.00 | 0.00 | 77 | 1002.1 |
| 20260505020614 | 64 | 331 | 0.9 | 3.5 | 0.00 | 0.00 | 0.00 | 78 | 1002.0 |
| 20260505020111 | 64 | 297 | 1.7 | 4.3 | 0.00 | 0.00 | 0.00 | 78 | 1002.0 |
| 20260505015608 | 65 | 317 | 1.7 | 4.3 | 0.00 | 0.00 | 0.00 | 76 | 1002.0 |
| 20260505015105 | 65 | 314 | 2.6 | 3.5 | 0.00 | 0.00 | 0.00 | 76 | 1001.9 |
| 20260505014601 | 66 | 355 | 3.5 | 6.1 | 0.00 | 0.00 | 0.00 | 77 | 1001.9 |
| 20260505014058 | 66 | 140 | 1.7 | 8.7 | 0.00 | 0.00 | 0.00 | 74 | 1002.0 |
| 20260505013555 | 66 | 249 | 0.0 | 6.1 | 0.00 | 0.00 | 0.00 | 74 | 1002.0 |
| 20260505013053 | 66 | 25 | 0.0 | 5.2 | 0.00 | 0.00 | 0.00 | 74 | 1002.0 |
| 20260505012550 | 67 | 96 | 1.7 | 5.2 | 0.00 | 0.00 | 0.00 | 75 | 1002.1 |
| 20260505012047 | 68 | 313 | 1.7 | 5.2 | 0.00 | 0.00 | 0.00 | 73 | 1002.0 |
| 20260505011543 | 68 | 282 | 2.6 | 7.8 | 0.00 | 0.00 | 0.00 | 73 | 1002.1 |
| 20260505011041 | 68 | 265 | 2.6 | 4.3 | 0.00 | 0.00 | 0.00 | 73 | 1002.0 |
| 20260505010536 | 69 | 284 | 1.7 | 7.0 | 0.00 | 0.00 | 0.00 | 73 | 1002.0 |
| 20260505010033 | 69 | 312 | 0.9 | 2.6 | 0.00 | 0.00 | 0.00 | 72 | 1002.1 |
| 20260505005529 | 69 | 277 | 0.0 | 4.3 | 0.00 | 0.00 | 0.00 | 72 | 1002.2 |
| 20260505005027 | 69 | 239 | 1.7 | 5.2 | 0.00 | 0.00 | 0.00 | 73 | 1002.1 |
| 20260505004523 | 70 | 283 | 2.6 | 4.3 | 0.00 | 0.00 | 0.00 | 71 | 1001.9 |
| 20260505004020 | 70 | 292 | 2.6 | 3.5 | 0.00 | 0.00 | 0.00 | 72 | 1002.1 |
| 20260505003517 | 70 | 306 | 1.7 | 3.5 | 0.00 | 0.00 | 0.00 | 72 | 1002.2 |
| 20260505003015 | 70 | 306 | 1.7 | 3.5 | 0.00 | 0.00 | 0.00 | 72 | 1002.2 |
| 20260505002509 | 70 | 318 | 1.7 | 5.2 | 0.00 | 0.00 | 0.00 | 72 | 1002.2 |
| 20260505002009 | 70 | 217 | 0.0 | 3.5 | 0.00 | 0.00 | 0.00 | 71 | 1002.2 |
| 20260505001506 | 70 | 8 | 0.9 | 5.2 | 0.00 | 0.00 | 0.00 | 71 | 1002.0 |
| 20260505001003 | 70 | 323 | 4.3 | 8.7 | 0.00 | 0.00 | 0.00 | 73 | 1002.3 |
| 20260505000500 | 70 | 248 | 0.0 | 10.4 | 0.00 | 0.00 | 0.00 | 72 | 1002.1 |
| 20260504235957 | 70 | 292 | 6.1 | 10.4 | 0.00 | 0.00 | 0.00 | 70 | 1002.2 |
| 20260504235454 | 71 | 341 | 2.6 | 5.2 | 0.00 | 0.00 | 0.00 | 73 | 1002.3 |
| 20260504234950 | 70 | 290 | 2.6 | 3.5 | 0.00 | 0.00 | 0.00 | 74 | 1002.2 |
| 20260504234448 | 70 | 111 | 2.6 | 4.3 | 0.00 | 0.00 | 0.00 | 74 | 1002.2 |
| 20260504233944 | 70 | 106 | 4.3 | 7.0 | 0.00 | 0.00 | 0.00 | 72 | 1002.3 |
| 20260504233440 | 70 | 141 | 2.6 | 6.1 | 0.00 | 0.00 | 0.00 | 68 | 1002.3 |
| 20260504232937 | 70 | 38 | 0.9 | 4.3 | 0.00 | 0.00 | 0.00 | 72 | 1002.3 |
| 20260504232434 | 70 | 353 | 1.7 | 5.2 | 0.00 | 0.00 | 0.00 | 71 | 1002.6 |
| 20260504231931 | 70 | 292 | 3.5 | 5.2 | 0.00 | 0.00 | 0.00 | 71 | 1002.6 |
| 20260504231427 | 70 | 36 | 1.7 | 6.1 | 0.00 | 0.00 | 0.00 | 71 | 1002.6 |
| 20260504230924 | 70 | 331 | 2.6 | 7.0 | 0.00 | 0.00 | 0.00 | 71 | 1002.6 |
| 20260504230421 | 70 | 356 | 0.9 | 4.3 | 0.00 | 0.00 | 0.00 | 71 | 1002.6 |
| 20260504225920 | 71 | 211 | 3.5 | 5.2 | 0.00 | 0.00 | 0.00 | 68 | 1002.8 |
| 20260504225416 | 71 | 167 | 2.6 | 5.2 | 0.00 | 0.00 | 0.00 | 68 | 1002.8 |
| 20260504224914 | 71 | 155 | 4.3 | 6.1 | 0.00 | 0.00 | 0.00 | 68 | 1002.7 |
| 20260504224410 | 71 | 91 | 3.5 | 7.0 | 0.00 | 0.00 | 0.00 | 67 | 1002.7 |
| 20260504223907 | 70 | 158 | 3.5 | 7.0 | 0.00 | 0.00 | 0.00 | 70 | 1002.9 |
| 20260504223402 | 71 | 86 | 1.7 | 7.8 | 0.00 | 0.00 | 0.00 | 68 | 1002.9 |
| 20260504222859 | 69 | 152 | 2.6 | 8.7 | 0.00 | 0.00 | 0.00 | 69 | 1003.0 |
| 20260504222356 | 71 | 232 | 2.6 | 5.2 | 0.00 | 0.00 | 0.00 | 66 | 1002.8 |
| 20260504221854 | 71 | 180 | 2.6 | 6.1 | 0.00 | 0.00 | 0.00 | 71 | 1003.1 |
| 20260504221351 | 71 | 330 | 2.6 | 6.1 | 0.00 | 0.00 | 0.00 | 70 | 1003.0 |
| 20260504220848 | 70 | 288 | 1.7 | 4.3 | 0.00 | 0.00 | 0.00 | 67 | 1003.2 |
| 20260504220344 | 70 | 74 | 4.3 | 5.2 | 0.00 | 0.00 | 0.00 | 68 | 1003.1 |
| 20260504215842 | 70 | 25 | 1.7 | 4.3 | 0.00 | 0.00 | 0.00 | 69 | 1003.3 |
| 20260504215338 | 69 | 39 | 2.6 | 6.1 | 0.00 | 0.00 | 0.00 | 70 | 1003.5 |
| 20260504214834 | 69 | 183 | 2.6 | 7.8 | 0.00 | 0.00 | 0.00 | 70 | 1003.5 |
| 20260504214331 | 68 | 85 | 0.9 | 7.8 | 0.00 | 0.00 | 0.00 | 70 | 1003.2 |
| 20260504213828 | 68 | 98 | 6.1 | 6.1 | 0.00 | 0.00 | 0.00 | 71 | 1003.4 |
| 20260504213324 | 68 | 58 | 2.6 | 6.1 | 0.00 | 0.00 | 0.00 | 72 | 1003.4 |
| 20260504212821 | 69 | 305 | 2.6 | 5.2 | 0.00 | 0.00 | 0.00 | 70 | 1003.5 |
| 20260504212317 | 71 | 34 | 1.7 | 3.5 | 0.00 | 0.00 | 0.00 | 72 | 1003.7 |
| 20260504211815 | 69 | 175 | 3.5 | 4.3 | 0.00 | 0.00 | 0.00 | 71 | 1003.6 |
| 20260504211311 | 68 | 7 | 1.7 | 3.5 | 0.00 | 0.00 | 0.00 | 70 | 1003.8 |
| 20260504210809 | 67 | 100 | 1.7 | 4.3 | 0.00 | 0.00 | 0.00 | 75 | 1003.7 |
| 20260504210306 | 66 | 106 | 2.6 | 7.8 | 0.00 | 0.00 | 0.00 | 73 | 1004.0 |
| 20260504205803 | 66 | 79 | 2.6 | 6.1 | 0.00 | 0.00 | 0.00 | 73 | 1003.8 |
| 20260504205300 | 68 | 182 | 2.6 | 7.8 | 0.00 | 0.00 | 0.00 | 73 | 1003.9 |
| 20260504204758 | 65 | 93 | 7.0 | 7.8 | 0.00 | 0.00 | 0.00 | 75 | 1003.9 |
| 20260504204256 | 67 | 209 | 4.3 | 7.0 | 0.00 | 0.00 | 0.00 | 72 | 1004.2 |
| 20260504203756 | 65 | 343 | 3.5 | 5.2 | 0.00 | 0.00 | 0.00 | 75 | 1004.2 |
| 20260504203252 | 65 | 146 | 2.6 | 6.1 | 0.00 | 0.00 | 0.00 | 76 | 1004.2 |
| 20260504202747 | 66 | 121 | 3.5 | 8.7 | 0.00 | 0.00 | 0.00 | 73 | 1004.1 |
| 20260504202245 | 66 | 12 | 1.7 | 3.5 | 0.00 | 0.00 | 0.00 | 72 | 1004.3 |
| 20260504201741 | 66 | 184 | 4.3 | 7.8 | 0.00 | 0.00 | 0.00 | 76 | 1004.1 |
| 20260504201238 | 67 | 321 | 5.2 | 5.2 | 0.00 | 0.00 | 0.00 | 76 | 1004.4 |
| 20260504200737 | 65 | 251 | 2.6 | 4.3 | 0.00 | 0.00 | 0.00 | 78 | 1004.2 |
| 20260504200232 | 65 | 71 | 3.5 | 7.8 | 0.00 | 0.00 | 0.00 | 74 | 1004.3 |
| 20260504195729 | 64 | 170 | 5.2 | 7.8 | 0.00 | 0.00 | 0.00 | 76 | 1004.3 |
| 20260504195225 | 65 | 141 | 1.7 | 5.2 | 0.00 | 0.00 | 0.00 | 74 | 1004.3 |